Temp
-12 -12 -12 -12 -11 -11 -11 -11 -11 -11 -10 -10 -10 -9 -9 -9 -9 -9 -9 -9 -9 -9 -10 -10 -10 -9 -9 -7 -8 -9 -9 -9 -9 -9 -9 -8 -8 -8 -9 -9 -8 -8 -8 -8
-12 -12 -12 -12 -12 -12 -12 -11 -11 -11 -11 -10 -10 -9 -9 -9 -9 -9 -9 -9 -9 -9 -10 -10 -11 -10 -10 -9 -8 -8 -9 -9 -9 -9 -9 -9 -9 -8 -8 -8 -8 -8 -8 -9
-13 -12 -12 -12 -12 -12 -12 -12 -12 -12 -11 -11 -10 -9 -9 -10 -10 -9 -9 -9 -10 -10 -10 -10 -10 -11 -10 -10 -10 -9 -9 -9 -9 -9 -9 -9 -9 -9 -8 -8 -8 -9 -9 -9
-13 -13 -13 -13 -13 -13 -13 -12 -12 -12 -12 -11 -11 -9 -9 -9 -9 -10 -10 -10 -10 -10 -10 -10 -10 -10 -11 -11 -11 -10 -10 -9 -9 -10 -9 -9 -9 -9 -9 -9 -9 -9 -9 -9
-13 -13 -13 -13 -13 -13 -13 -12 -13 -13 -13 -12 -12 -10 -9 -9 -9 -10 -10 -10 -10 -10 -10 -10 -10 -10 -11 -11 -11 -11 -10 -10 -9 -9 -9 -9 -9 -9 -9 -9 -9 -8 -8 -9
-14 -14 -13 -13 -13 -13 -13 -13 -13 -14 -13 -13 -13 -13 -13 -12 -12 -12 -11 -11 -11 -11 -11 -10 -11 -11 -11 -11 -11 -11 -11 -10 -10 -10 -9 -9 -9 -9 -10 -10 -9 -9 -10 -9
-14 -14 -14 -14 -14 -13 -14 -14 -14 -14 -14 -16 -17 -18 -17 -19 -19 -17 -16 -14 -14 -14 -13 -12 -11 -11 -11 -11 -11 -11 -11 -11 -11 -10 -10 -9 -10 -10 -10 -10 -10 -10 -10 -10
-14 -14 -14 -14 -14 -15 -15 -14 -15 -15 -16 -17 -19 -20 -20 -21 -21 -20 -19 -19 -17 -16 -16 -15 -13 -13 -13 -11 -11 -11 -11 -11 -12 -12 -11 -11 -11 -10 -10 -10 -11 -10 -10 -10
-15 -15 -15 -15 -14 -15 -15 -15 -15 -16 -17 -18 -19 -20 -20 -21 -20 -20 -19 -19 -19 -19 -18 -17 -16 -16 -15 -13 -12 -12 -12 -12 -12 -12 -11 -11 -11 -12 -12 -11 -11 -11 -11 -11
-15 -15 -15 -15 -15 -15 -15 -16 -16 -16 -17 -18 -20 -20 -20 -20 -20 -20 -20 -19 -19 -20 -19 -19 -17 -17 -16 -15 -14 -13 -13 -13 -13 -12 -12 -11 -11 -12 -13 -12 -12 -11 -12 -11
-15 -15 -15 -15 -15 -15 -16 -16 -16 -17 -18 -19 -19 -20 -20 -20 -20 -20 -20 -20 -20 -19 -20 -19 -18 -17 -16 -16 -16 -15 -14 -14 -14 -14 -13 -13 -13 -12 -13 -12 -12 -11 -11 -9
-16 -16 -16 -16 -16 -16 -16 -16 -17 -17 -18 -19 -19 -19 -20 -20 -20 -20 -20 -20 -20 -20 -18 -19 -19 -19 -17 -16 -16 -16 -15 -14 -14 -14 -13 -14 -14 -13 -13 -13 -13 -12 -11 -11
-16 -16 -16 -16 -16 -17 -17 -16 -17 -17 -18 -19 -19 -20 -21 -20 -20 -20 -20 -20 -20 -20 -20 -20 -18 -17 -19 -17 -16 -16 -16 -15 -14 -14 -15 -15 -15 -15 -14 -14 -13 -12 -11 -10
-16 -17 -17 -17 -16 -17 -17 -17 -17 -17 -18 -18 -20 -19 -20 -21 -21 -21 -21 -21 -20 -20 -20 -20 -19 -18 -17 -18 -17 -17 -16 -15 -15 -14 -14 -14 -15 -15 -14 -14 -14 -13 -12 -11
-17 -17 -17 -17 -17 -17 -17 -18 -18 -18 -18 -18 -19 -19 -20 -20 -21 -21 -21 -21 -21 -20 -20 -20 -19 -19 -18 -17 -18 -18 -17 -16 -15 -15 -15 -14 -14 -14 -14 -15 -15 -15 -14 -13
-17 -17 -17 -17 -17 -17 -17 -18 -18 -18 -19 -19 -19 -20 -20 -20 -20 -21 -21 -21 -21 -21 -20 -20 -19 -19 -20 -18 -18 -18 -18 -17 -16 -15 -15 -15 -14 -14 -14 -14 -14 -14 -15 -15
-17 -18 -18 -17 -18 -17 -18 -18 -18 -18 -18 -19 -19 -20 -20 -20 -20 -21 -21 -21 -21 -21 -21 -21 -21 -20 -19 -20 -20 -19 -17 -17 -16 -17 -15 -16 -15 -15 -15 -15 -14 -14 -14 -14
-18 -18 -18 -18 -18 -18 -18 -18 -18 -18 -18 -19 -19 -20 -20 -21 -21 -21 -21 -21 -21 -21 -21 -21 -21 -21 -20 -19 -20 -19 -20 -18 -17 -17 -17 -16 -17 -16 -16 -15 -15 -15 -15 -14
-18 -18 -18 -18 -18 -18 -18 -19 -18 -18 -19 -19 -19 -20 -20 -20 -21 -22 -21 -21 -22 -22 -22 -22 -22 -21 -21 -21 -20 -20 -20 -19 -19 -17 -17 -17 -17 -16 -17 -16 -16 -16 -16 -15
-18 -18 -19 -19 -19 -18 -19 -19 -18 -18 -19 -19 -20 -20 -20 -21 -20 -21 -22 -22 -22 -22 -22 -23 -23 -23 -23 -23 -22 -21 -20 -21 -21 -20 -20 -18 -18 -17 -17 -17 -17 -17 -17 -16
-18 -19 -19 -19 -19 -18 -19 -19 -19 -19 -19 -19 -20 -20 -20 -20 -21 -21 -22 -22 -22 -22 -22 -23 -23 -23 -23 -23 -23 -23 -23 -22 -22 -22 -21 -21 -19 -19 -18 -17 -17 -17 -17 -16
-19 -19 -20 -19 -19 -19 -19 -20 -19 -20 -20 -20 -20 -20 -20 -21 -21 -22 -22 -22 -23 -23 -23 -23 -23 -23 -23 -23 -23 -23 -23 -23 -22 -22 -22 -22 -22 -21 -20 -19 -19 -18 -18 -17
-19 -20 -20 -20 -20 -19 -20 -19 -20 -19 -20 -20 -20 -20 -20 -21 -21 -22 -22 -22 -23 -23 -23 -23 -23 -23 -23 -23 -23 -23 -23 -23 -23 -22 -22 -22 -22 -21 -21 -21 -19 -19 -19 -19
-20 -20 -20 -20 -20 -20 -20 -20 -20 -20 -20 -20 -20 -20 -20 -21 -21 -22 -22 -22 -23 -23 -23 -23 -24 -24 -23 -23 -23 -23 -23 -23 -22 -22 -22 -23 -23 -23 -23 -21 -20 -20 -21 -20
-20 -21 -20 -20 -20 -20 -21 -20 -20 -20 -20 -20 -20 -20 -21 -21 -21 -22 -22 -23 -23 -23 -23 -24 -24 -24 -24 -23 -23 -23 -23 -23 -23 -22 -22 -22 -22 -22 -22 -22 -22 -20 -19 -20
-21 -21 -20 -20 -20 -21 -21 -21 -20 -21 -21 -21 -21 -21 -21 -21 -22 -23 -23 -23 -24 -24 -24 -24 -24 -24 -24 -24 -23 -23 -23 -22 -22 -22 -22 -22 -22 -21 -21 -22 -22 -22 -22 -21
Height
5778 5780 5780 5783 5783 5784 5785 5786 5786 5785 5786 5791 5794 5799 5801 5804 5806 5807 5810 5812 5814 5815 5819 5824 5825 5829 5831 5836 5840 5846 5851 5856 5859 5863 5865 5867 5869 5871 5873 5874 5875 5875 5876 5877
5771 5773 5774 5774 5775 5775 5774 5776 5774 5776 5775 5774 5780 5787 5784 5788 5791 5793 5795 5798 5798 5802 5804 5808 5812 5815 5819 5825 5831 5835 5839 5844 5849 5853 5858 5859 5860 5863 5866 5868 5871 5872 5873 5872
5765 5767 5768 5768 5768 5768 5767 5767 5764 5763 5764 5763 5761 5771 5772 5772 5772 5776 5777 5780 5782 5782 5786 5792 5796 5800 5807 5812 5818 5823 5829 5834 5839 5843 5845 5848 5851 5854 5859 5863 5865 5866 5866 5867
5760 5761 5762 5762 5761 5761 5760 5757 5753 5752 5751 5749 5745 5749 5753 5751 5752 5752 5754 5751 5760 5765 5769 5775 5782 5786 5791 5798 5803 5810 5814 5818 5825 5828 5832 5838 5842 5846 5851 5853 5854 5855 5857 5859
5755 5755 5756 5756 5754 5753 5751 5748 5745 5741 5737 5734 5729 5731 5730 5725 5728 5729 5732 5738 5742 5748 5754 5757 5764 5773 5778 5780 5788 5794 5800 5804 5810 5814 5819 5825 5830 5835 5838 5841 5843 5846 5848 5850
5750 5751 5751 5751 5748 5747 5745 5742 5738 5733 5729 5722 5713 5709 5707 5700 5702 5706 5710 5717 5726 5727 5732 5738 5747 5753 5762 5765 5769 5777 5785 5792 5797 5802 5807 5812 5819 5824 5826 5829 5833 5836 5837 5839
5744 5745 5745 5744 5741 5737 5734 5732 5728 5724 5718 5711 5703 5699 5692 5690 5687 5688 5692 5694 5700 5706 5710 5717 5729 5736 5740 5750 5755 5761 5769 5777 5784 5788 5793 5801 5809 5811 5814 5816 5821 5823 5825 5827
5736 5737 5736 5735 5734 5731 5727 5724 5720 5713 5708 5704 5699 5694 5692 5689 5685 5681 5681 5684 5687 5688 5693 5699 5710 5718 5721 5733 5740 5747 5755 5763 5769 5775 5782 5786 5794 5797 5801 5803 5806 5810 5814 5816
5729 5730 5729 5728 5727 5724 5720 5717 5715 5709 5704 5698 5696 5692 5690 5686 5684 5685 5684 5682 5682 5681 5680 5682 5689 5700 5708 5715 5724 5730 5737 5744 5750 5758 5764 5770 5772 5777 5783 5789 5793 5795 5798 5803
5725 5723 5723 5721 5720 5718 5715 5713 5709 5705 5699 5695 5691 5688 5687 5683 5680 5681 5679 5678 5677 5675 5673 5674 5676 5685 5692 5701 5708 5713 5718 5725 5732 5741 5748 5754 5758 5761 5766 5768 5773 5778 5782 5783
5720 5718 5719 5717 5715 5712 5710 5707 5704 5700 5695 5691 5687 5684 5683 5681 5678 5677 5673 5672 5672 5669 5671 5670 5668 5673 5680 5688 5693 5698 5705 5710 5714 5720 5729 5737 5743 5746 5750 5752 5754 5757 5759 5758
5716 5714 5712 5711 5710 5708 5704 5702 5699 5695 5692 5686 5682 5681 5677 5675 5673 5671 5669 5664 5663 5662 5663 5664 5666 5667 5672 5678 5683 5687 5689 5694 5699 5705 5711 5719 5726 5731 5734 5741 5743 5744 5746 5749
5712 5710 5708 5706 5707 5704 5700 5696 5692 5689 5687 5684 5678 5676 5672 5669 5668 5664 5663 5659 5654 5654 5654 5656 5656 5658 5661 5664 5669 5674 5677 5682 5685 5689 5693 5699 5705 5712 5715 5720 5723 5723 5724 5722
5707 5706 5703 5701 5700 5698 5695 5690 5685 5682 5679 5677 5672 5670 5666 5664 5662 5658 5655 5655 5651 5647 5646 5646 5649 5653 5649 5652 5654 5659 5663 5667 5671 5675 5679 5684 5688 5692 5697 5701 5706 5708 5710 5711
5702 5701 5698 5695 5694 5692 5690 5687 5680 5676 5672 5670 5669 5663 5660 5656 5654 5651 5648 5646 5644 5641 5639 5638 5638 5639 5639 5639 5642 5646 5652 5652 5655 5660 5663 5668 5672 5676 5678 5683 5688 5692 5694 5693
5695 5694 5692 5689 5688 5687 5684 5681 5677 5673 5668 5664 5662 5659 5655 5649 5646 5643 5640 5637 5635 5633 5630 5628 5629 5626 5625 5625 5629 5632 5635 5639 5642 5644 5647 5651 5654 5658 5662 5664 5667 5672 5673 5673
5688 5687 5685 5684 5681 5680 5679 5674 5670 5666 5662 5659 5656 5653 5649 5643 5638 5636 5632 5628 5625 5623 5621 5618 5615 5612 5612 5611 5613 5615 5618 5623 5625 5631 5632 5633 5637 5640 5641 5647 5651 5652 5655 5657
5681 5679 5678 5677 5674 5675 5672 5667 5663 5659 5656 5652 5649 5646 5643 5639 5634 5629 5624 5621 5617 5614 5612 5609 5607 5605 5600 5598 5598 5599 5602 5606 5608 5609 5611 5613 5615 5619 5623 5626 5628 5632 5635 5638
5673 5671 5669 5669 5668 5669 5665 5659 5655 5652 5650 5646 5642 5639 5636 5632 5628 5624 5617 5612 5608 5604 5600 5598 5596 5593 5590 5589 5588 5586 5586 5587 5592 5592 5592 5592 5596 5598 5601 5605 5609 5612 5615 5619
5665 5663 5663 5660 5659 5659 5658 5652 5648 5645 5643 5639 5635 5632 5629 5625 5620 5618 5611 5605 5599 5595 5590 5587 5584 5582 5579 5577 5574 5571 5570 5570 5572 5571 5574 5576 5576 5578 5582 5583 5586 5591 5593 5598
5657 5654 5654 5651 5649 5652 5650 5644 5639 5638 5637 5631 5627 5623 5619 5616 5612 5607 5603 5598 5591 5585 5579 5575 5572 5569 5566 5563 5561 5559 5558 5556 5553 5555 5555 5553 5555 5556 5557 5560 5564 5567 5569 5574
5648 5645 5646 5643 5641 5641 5641 5638 5635 5632 5628 5624 5620 5615 5611 5608 5604 5599 5594 5589 5584 5578 5572 5566 5562 5558 5553 5550 5549 5547 5545 5543 5542 5540 5536 5534 5533 5532 5533 5537 5541 5544 5546 5551
5639 5639 5637 5636 5635 5633 5629 5630 5627 5624 5621 5617 5613 5608 5604 5601 5596 5591 5586 5581 5575 5570 5564 5557 5552 5548 5542 5539 5535 5535 5534 5532 5528 5525 5521 5515 5512 5509 5510 5509 5514 5517 5523 5529
5632 5629 5627 5623 5629 5623 5621 5620 5618 5615 5611 5607 5603 5599 5595 5591 5587 5583 5578 5572 5566 5560 5554 5549 5543 5538 5533 5529 5526 5522 5520 5518 5515 5514 5510 5505 5499 5493 5488 5486 5488 5490 5495 5499
5625 5621 5615 5613 5619 5613 5614 5609 5609 5607 5603 5600 5595 5591 5586 5582 5577 5573 5569 5564 5558 5552 5547 5540 5534 5529 5524 5519 5514 5511 5509 5505 5502 5497 5493 5489 5484 5477 5473 5469 5467 5469 5473 5472
5614 5610 5602 5605 5608 5606 5606 5601 5600 5599 5596 5593 5589 5584 5579 5573 5568 5564 5559 5555 5550 5545 5539 5532 5525 5520 5515 5509 5503 5499 5496 5492 5489 5484 5479 5474 5467 5462 5459 5456 5454 5450 5450 5447
Wind_Speed
24 26 28 30 32 35 37 39 41 44 47 48 49 54 55 58 58 60 65 64 63 60 56 57 58 59 58 55 52 45 45 40 37 32 30 26 24 26 24 23 21 19 17 16
27 27 29 30 32 34 37 38 42 44 47 52 52 53 55 55 58 64 65 65 69 69 65 61 62 63 62 60 58 53 50 47 43 37 34 35 34 32 30 30 24 23 21 20
24 26 27 30 32 35 39 40 43 47 50 53 58 55 57 58 60 60 67 71 70 74 75 70 68 67 67 65 62 60 56 52 49 47 42 41 41 38 34 31 30 30 30 26
25 27 29 31 34 35 36 39 43 46 48 54 59 61 60 63 65 66 67 72 77 77 79 79 74 73 72 69 68 65 63 60 55 53 53 47 43 43 40 37 38 37 37 35
27 29 29 30 31 32 34 36 38 40 42 44 50 59 64 70 70 72 74 75 75 80 82 83 81 76 75 76 73 70 70 69 65 62 58 54 50 48 45 47 45 43 41 39
26 26 26 25 26 27 29 32 33 36 39 41 41 47 50 61 65 70 72 74 74 79 82 85 84 82 78 79 79 76 75 70 68 66 63 58 52 52 51 48 50 48 46 45
22 23 22 21 21 26 30 31 32 35 38 34 29 28 35 27 27 40 47 58 66 71 77 81 84 81 84 80 79 81 77 73 70 68 65 60 53 53 54 51 51 53 54 52
20 21 22 21 19 24 28 30 33 36 39 32 19 20 18 19 22 23 27 33 36 48 61 69 76 75 78 85 79 76 78 79 75 71 67 64 56 54 55 55 55 55 56 56
19 21 21 20 20 24 29 31 31 33 34 30 18 21 20 20 18 19 29 24 26 35 39 51 60 61 69 77 82 78 79 74 76 73 69 67 62 58 54 55 58 56 55 55
16 20 20 21 22 25 27 30 32 32 32 28 21 21 20 22 28 24 24 19 28 29 37 39 47 52 61 65 71 71 71 81 72 68 74 74 69 62 59 59 59 62 59 60
15 19 19 20 22 26 28 30 30 31 31 29 29 27 23 23 26 27 33 29 26 31 31 37 44 52 59 57 58 59 67 66 73 67 62 69 73 69 66 68 67 69 68 70
15 19 20 21 22 24 27 28 29 29 29 28 29 25 29 33 31 31 29 35 37 38 21 30 35 40 59 58 53 54 60 64 65 68 72 65 65 70 70 72 70 69 69 76
15 18 20 21 23 23 26 29 30 29 27 22 26 23 24 30 34 40 38 36 43 41 45 30 25 31 42 58 60 54 58 65 64 71 61 60 60 66 68 69 76 81 82 80
15 18 21 23 23 25 27 29 31 31 31 30 25 27 27 28 27 33 37 39 43 46 43 47 34 34 30 44 59 57 58 65 65 67 69 65 63 66 71 73 69 76 81 86
19 21 21 24 25 26 25 25 29 32 33 31 27 29 29 29 28 29 29 33 42 46 48 48 47 45 39 42 50 59 61 58 64 69 70 75 75 76 73 73 76 74 78 82
25 23 25 25 26 26 26 24 27 29 30 30 29 27 28 28 29 27 27 30 33 37 42 46 49 49 51 38 41 54 61 68 61 69 69 76 85 78 85 80 80 83 83 84
29 27 26 26 27 26 27 26 28 30 32 32 30 28 28 30 33 30 31 32 33 36 40 43 43 52 54 53 58 57 59 64 74 78 62 67 81 81 72 74 81 85 88 86
30 31 28 28 29 25 26 27 28 31 32 32 30 31 31 31 32 32 34 35 37 37 37 40 46 47 51 61 53 58 58 54 69 77 72 80 75 78 77 78 75 80 85 90
32 33 31 29 30 27 27 30 32 32 31 31 31 33 33 33 32 31 36 37 39 40 41 42 43 46 50 52 57 54 58 64 62 62 68 68 75 77 80 87 84 83 86 87
35 36 33 32 33 29 27 30 32 32 30 32 32 32 32 34 38 34 37 38 39 41 41 40 42 45 49 51 54 50 55 52 55 61 69 72 70 76 86 81 82 89 91 90
38 37 33 33 35 30 27 32 35 33 34 34 35 35 37 39 39 39 38 39 42 45 44 44 42 40 41 42 43 46 46 50 54 55 60 62 73 82 79 79 81 84 87 97
39 38 33 35 34 35 32 32 34 34 33 33 34 36 39 38 37 38 39 40 41 42 43 43 43 43 44 43 39 38 43 45 48 55 61 64 64 68 75 85 87 83 84 86
39 37 36 36 34 35 37 35 35 36 33 34 35 37 38 38 39 40 41 41 41 42 43 42 40 40 41 38 35 37 39 42 45 48 50 52 60 64 73 79 80 83 83 82
39 37 37 40 32 37 36 37 37 37 36 37 39 40 40 40 42 42 42 43 43 43 44 43 42 41 40 40 44 46 43 45 43 43 45 47 49 52 53 64 81 83 78 76
38 36 42 43 34 38 33 38 37 37 38 39 40 40 41 42 42 43 43 43 43 43 44 44 42 41 40 41 42 43 44 43 45 46 46 46 50 46 47 51 52 64 83 84
36 37 46 41 35 35 33 36 37 36 38 38 38 40 41 41 42 43 43 42 41 42 42 42 41 40 39 40 42 44 43 46 47 47 46 49 47 41 40 38 38 43 48 60
Wind_Direction
253 258 261 264 266 268 269 269 268 268 268 265 260 256 251 248 244 242 242 245 248 248 241 236 242 248 249 247 244 243 246 247 247 250 248 249 245 249 255 257 255 252 250 244
265 268 271 273 275 279 280 281 280 277 275 270 261 258 259 254 249 245 241 242 243 244 244 239 233 239 245 249 250 245 243 246 246 241 245 244 245 245 247 252 253 259 259 256
265 271 276 280 281 282 284 284 283 282 278 275 270 261 257 257 254 248 245 241 240 241 241 239 238 235 238 243 246 250 249 248 249 251 238 240 242 243 248 254 256 261 259 253
272 274 276 279 282 283 283 286 289 289 287 282 275 268 263 258 254 250 244 241 239 238 240 241 238 237 238 239 242 244 247 247 246 246 247 244 244 243 247 243 246 249 255 256
270 273 274 277 279 283 291 294 296 301 300 292 281 272 264 260 252 249 246 242 240 238 237 240 240 237 237 240 240 241 244 248 247 245 247 247 244 242 242 246 243 245 249 253
264 265 270 276 287 295 294 300 311 314 312 307 293 274 262 258 256 251 247 242 240 238 237 236 238 240 235 237 240 242 243 245 250 251 246 244 245 244 243 242 246 247 249 250
260 266 275 287 310 308 312 320 323 323 329 331 311 284 276 281 279 263 255 251 241 239 238 236 234 236 240 236 237 240 241 243 245 248 251 251 248 246 243 243 243 244 247 249
278 283 291 303 316 316 319 326 333 334 336 336 304 289 292 290 294 294 278 259 248 242 241 240 236 234 238 237 237 240 240 240 240 243 249 253 250 245 243 243 243 242 244 248
286 293 299 311 315 322 327 330 333 335 337 332 309 279 301 288 276 267 285 291 284 260 246 242 239 237 237 236 237 240 240 242 243 242 243 241 239 240 243 240 240 238 239 243
285 291 300 313 317 321 326 329 333 334 335 336 298 271 287 284 282 266 260 269 277 264 260 243 238 233 233 237 238 239 241 242 240 243 244 241 240 237 240 239 237 237 235 235
297 297 301 308 314 318 322 327 331 331 335 329 329 288 278 274 276 282 282 272 278 246 262 259 244 234 233 233 236 238 238 239 242 235 237 238 240 233 235 240 239 238 245 226
305 300 304 306 310 315 318 323 328 329 332 332 324 330 292 278 285 291 285 277 286 272 236 247 247 247 237 231 231 232 235 237 237 240 240 235 236 233 235 239 242 245 242 245
305 301 303 301 306 313 316 322 323 325 327 329 330 321 306 296 285 286 286 284 289 292 284 264 210 219 250 237 230 229 232 235 237 236 236 238 238 236 237 237 239 240 243 246
310 309 306 306 309 309 316 320 320 322 323 329 327 328 314 311 304 288 282 277 280 289 293 292 270 230 225 246 238 242 233 234 235 237 239 239 238 234 237 236 240 243 245 248
309 306 306 307 306 307 309 313 315 317 318 323 324 323 324 317 311 304 299 286 277 280 284 285 285 268 231 223 241 242 243 236 232 240 239 241 244 245 243 238 239 240 244 248
313 305 302 305 306 304 305 306 309 310 311 316 322 322 320 316 316 312 303 292 287 283 282 282 277 280 279 236 234 240 244 249 245 243 236 239 239 244 247 244 242 245 242 246
309 302 298 298 302 304 302 304 304 308 314 318 323 324 318 316 319 319 310 304 297 291 287 286 287 281 280 282 270 274 228 239 253 247 232 234 239 239 239 244 245 247 249 251
309 301 296 292 294 297 301 302 301 305 311 318 320 320 321 317 315 316 311 308 303 297 290 286 280 278 279 274 278 276 268 231 235 239 238 249 254 250 246 243 244 248 252 254
309 298 293 289 286 291 300 300 301 303 310 314 316 318 323 319 312 309 312 313 312 308 303 297 289 282 276 270 272 273 274 274 262 233 229 226 235 239 243 248 247 248 249 250
305 298 290 289 284 290 297 295 295 301 309 312 312 316 316 314 317 318 317 316 313 309 305 300 294 290 286 283 279 275 270 270 271 274 268 245 234 235 241 241 244 248 249 250
302 291 288 288 284 284 293 297 299 304 308 310 314 316 315 319 320 320 316 312 313 313 311 307 303 297 293 290 284 281 281 282 282 279 275 274 270 265 257 240 238 239 242 248
298 288 289 286 287 286 287 292 295 299 304 306 309 312 315 317 316 313 313 313 312 312 311 307 302 299 296 293 288 283 281 283 283 281 281 279 276 274 271 269 267 259 248 244
295 291 289 287 288 287 284 288 294 297 301 303 305 309 316 316 314 316 316 314 313 313 313 310 303 300 296 292 287 291 289 290 292 289 288 288 284 278 272 274 271 270 270 267
295 288 287 280 286 285 283 286 292 299 302 304 306 311 314 315 317 317 316 314 314 315 316 315 309 303 300 289 287 288 291 294 292 286 288 290 291 289 283 274 270 270 272 272
295 282 279 281 287 282 284 284 291 297 299 302 306 307 310 313 315 316 317 314 312 312 314 315 309 304 299 294 289 286 289 291 296 296 294 297 296 289 286 280 271 267 268 269
290 278 275 280 286 284 279 282 289 294 296 301 302 304 309 312 313 313 313 312 310 310 311 313 311 306 300 296 293 292 290 291 293 296 295 302 297 284 280 280 279 276 267 265